Cecil Field, FL

7:02 AM EDT on March 27, 2017 (GMT -0400)
Cecil

Weather History for KVQQ - August, 2013

Change the Weather History Date:

Thursday, August 1, 2013

  Actual Average (KNIP) Record (KNIP)
Temperature  
Mean Temperature 81 °F -  
Max Temperature 91 °F 88 °F 104 °F (1999)
Min Temperature 71 °F 73 °F 69 °F (1997)
Cooling Degree Days 16    
Growing Degree Days 31 (Base 50)    
Moisture  
Dew Point 73 °F    
Average Humidity 95    
Maximum Humidity 100    
Minimum Humidity 59    
Precipitation  
Precipitation 0.00 in - - ()
Sea Level Pressure  
Sea Level Pressure 30.01 in    
Wind  
Wind Speed 2 mph (South)    
Max Wind Speed 15 mph    
Max Gust Speed 25 mph    
Visibility 9 miles    
Events      
Averages and records for this station are not official NWS values.
T = Trace of Precipitation, MM = Missing Value Source: NWS Daily Summary

Daily Weather History Graph

Daily Weather History Graph

Search for Another Location

Airport or City:

Trip Planner

Search our weather history database for the weather conditions in past years. The results will help you decide how hot, cold, wet, or windy it might be!

Date:

Astronomy

Aug. 01, 2013 Rise Set
Actual Time 6:46 AM EDT 8:20 PM EDT
Civil Twilight 6:20 AM EDT 8:46 PM EDT
Nautical Twilight 5:49 AM EDT 9:18 PM EDT
Astronomical Twilight 5:16 AM EDT 9:50 PM EDT
Moon 2:23 AM EDT (8/1) 4:25 PM EDT (8/1)
Length of Visible Light 14h 26m
Length of Day
13h 34m
Waning Crescent, 23% of the Moon is Illuminated
Aug 1
Waning Crescent
Aug 6
New
Aug 14
First Quarter
Aug 20
Full
Aug 28
Last Quarter

Hourly Weather History & Observations

Time (EDT) Temp. Heat Index Dew Point Humidity Pressure Visibility Wind Dir Wind Speed Gust Speed Precip Events Conditions
12:15 AM 71.6 °F - 71.6 °F 100% 30.06 in 10.0 mi SSE 3.5 mph - N/A   Clear
12:35 AM 71.6 °F - 71.6 °F 100% 30.06 in 10.0 mi Calm Calm - N/A   Clear
12:55 AM 71.6 °F - 71.6 °F 100% 30.06 in 10.0 mi Calm Calm - N/A   Clear
1:15 AM 71.6 °F - 71.6 °F 100% 30.05 in 10.0 mi Calm Calm - N/A   Clear
1:35 AM 71.6 °F - 71.6 °F 100% 30.04 in 10.0 mi Calm Calm - N/A   Clear
1:55 AM 71.6 °F - 71.6 °F 100% 30.03 in 9.0 mi Calm Calm - N/A   Clear
2:15 AM 71.6 °F - 71.6 °F 100% 30.03 in 7.0 mi Calm Calm - N/A   Clear
2:35 AM 71.6 °F - 71.6 °F 100% 30.02 in 7.0 mi Calm Calm - N/A   Clear
2:55 AM 71.6 °F - 71.6 °F 100% 30.01 in 6.0 mi Calm Calm - N/A   Clear
3:15 AM 71.6 °F - 71.6 °F 100% 30.01 in 8.0 mi Calm Calm - N/A   Clear
3:35 AM 71.6 °F - 71.6 °F 100% 30.00 in 5.0 mi Calm Calm - N/A   Clear
3:55 AM 71.6 °F - 71.6 °F 100% 30.00 in 7.0 mi Calm Calm - N/A   Clear
4:15 AM 71.6 °F - 71.6 °F 100% 30.00 in 7.0 mi Calm Calm - N/A   Clear
4:35 AM 71.6 °F - 71.6 °F 100% 30.00 in 7.0 mi Calm Calm - N/A   Clear
4:55 AM 71.6 °F - 71.6 °F 100% 30.00 in 9.0 mi Calm Calm - N/A   Clear
5:15 AM 71.6 °F - 71.6 °F 100% 30.00 in 10.0 mi Calm Calm - N/A   Clear
5:35 AM 71.6 °F - 71.6 °F 100% 30.01 in 9.0 mi Calm Calm - N/A   Clear
5:55 AM 71.6 °F - 71.6 °F 100% 30.01 in 9.0 mi Calm Calm - N/A   Clear
6:15 AM 71.6 °F - 71.6 °F 100% 30.01 in 9.0 mi Calm Calm - N/A   Partly Cloudy
6:35 AM 71.6 °F - 71.6 °F 100% 30.02 in 9.0 mi Calm Calm - N/A   Partly Cloudy
6:50 AM 71.6 °F - 71.6 °F 100% 30.02 in 9.0 mi Calm Calm - N/A   Partly Cloudy
7:50 AM 73.4 °F - 73.4 °F 100% 30.02 in 10.0 mi Calm Calm - N/A   Mostly Cloudy
8:50 AM 73.4 °F - 73.4 °F 100% 30.03 in 10.0 mi Calm Calm - N/A   Mostly Cloudy
9:50 AM 78.8 °F - 75.2 °F 89% 30.04 in 10.0 mi SW 4.6 mph - N/A   Scattered Clouds
10:50 AM 84.2 °F 92.3 °F 75.2 °F 74% 30.04 in 10.0 mi SW 8.1 mph - N/A   Scattered Clouds
12:50 PM 86.0 °F 96.9 °F 77.0 °F 74% 30.00 in 10.0 mi Variable 4.6 mph - N/A   Scattered Clouds
1:50 PM 89.6 °F 99.8 °F 75.2 °F 62% 29.99 in 10.0 mi West 5.8 mph - N/A   Scattered Clouds
2:50 PM 91.4 °F 102.5 °F 75.2 °F 59% 29.97 in 10.0 mi WSW 5.8 mph - N/A   Scattered Clouds
3:50 PM 84.2 °F 90.9 °F 73.4 °F 70% 29.98 in 10.0 mi WSW 15.0 mph 25.3 mph N/A   Scattered Clouds
4:50 PM 82.4 °F 88.2 °F 73.4 °F 74% 30.00 in 10.0 mi East 8.1 mph - N/A   Scattered Clouds
5:50 PM 77.0 °F - 73.4 °F 89% 30.00 in 10.0 mi East 11.5 mph - N/A   Scattered Clouds
6:50 PM 77.0 °F - 73.4 °F 89% 29.99 in 10.0 mi SSE 9.2 mph - N/A   Clear
7:50 PM 77.0 °F - 75.2 °F 94% 30.00 in 10.0 mi Calm Calm - N/A   Clear
8:15 PM 77.0 °F - 75.2 °F 94% 29.99 in 10.0 mi SSE 3.5 mph - N/A   Clear
8:35 PM 77.0 °F - 75.2 °F 94% 29.99 in 10.0 mi SSW 3.5 mph - N/A   Clear
8:55 PM 75.2 °F - 75.2 °F 100% 29.99 in 10.0 mi SE 3.5 mph - N/A   Clear
9:15 PM 75.2 °F - 75.2 °F 100% 29.99 in 10.0 mi Calm Calm - N/A   Clear
9:35 PM 75.2 °F - 75.2 °F 100% 29.99 in 10.0 mi Calm Calm - N/A   Clear
9:55 PM 75.2 °F - 75.2 °F 100% 29.99 in 10.0 mi Calm Calm - N/A   Clear
10:15 PM 75.2 °F - 75.2 °F 100% 30.00 in 10.0 mi Calm Calm - N/A   Clear
10:35 PM 75.2 °F - 75.2 °F 100% 30.00 in 10.0 mi South 3.5 mph - N/A   Clear
10:55 PM 75.2 °F - 75.2 °F 100% 30.00 in 10.0 mi SSE 3.5 mph - N/A   Clear
11:15 PM 73.4 °F - 73.4 °F 100% 30.01 in 10.0 mi SSE 3.5 mph - N/A   Clear
11:35 PM 73.4 °F - 73.4 °F 100% 30.01 in 10.0 mi SSE 3.5 mph - N/A   Clear
11:55 PM 73.4 °F - 73.4 °F 100% 30.01 in 10.0 mi Calm Calm - N/A   Clear